Location: Newark
(48.1500°N, 13.1167°E)
Time: 16:52:26
(UTC+00:00)

XW-2D - Pass Details

Date: 13 December 2021
Orbit: 502 x 522 km, 97.5° (Epoch: 17 January)

Event Time Altitude Azimuth Distance (km) Brightness Sun altitude
Rises 15:43:29 0° 150° (SSE) 2,627 ? -5.0°
Reaches altitude 10° 15:45:37 10° 145° (SE) 1,748 ? -5.3°
Maximum altitude 15:49:14 46° 71° (ENE) 713 ? -5.9°
Drops below altitude 10° 15:52:53 10° 358° (N) 1,771 ? -6.4°
Sets 15:55:03 0° 353° (N) 2,666 ? -6.7°
